Terminal Aerodrome Forecast
Issued by NWS Miami, FL

Home | Current Version | Previous Version | Text Only | Print | Product List | Glossary On
Versions: 1 2 3 4 5 6 7 8 9 10 11 12 13 14 15 16 17 18 19 20 21 22 23 24 25 26 27 28 29 30 31 32 33 34 35 36 37 38 39 40
337
FTUS42 KMFL 121751
TAFFLL
TAF
KFLL 121751Z 1218/1318 11008KT P6SM FEW040
     FM130000 VRB03KT P6SM SKC
     FM131400 32008KT P6SM SCT250=

USA.gov is the U.S. government's official web portal to all federal, state and local government web resources and services.